DW7533 Weather Reports


time (UTC)temp
F
wind
direction
speed
knots
gust
knots
rain 1hr
in
rain 24hr
in
rain mn
in
humidity
%
barometer
mb
20260509013305 60 40 5.2 11.3 0.00 0.00 0.00 66 1029.0
20260509012804 59 41 4.3 10.4 0.00 0.00 0.00 66 1029.0
20260509012307 59 354 4.3 10.4 0.00 0.00 0.00 66 1029.1
20260509011805 59 7 4.3 8.7 0.00 0.00 0.00 66 1029.0
20260509011305 59 43 4.3 11.3 0.00 0.00 0.00 67 1028.9
20260509010805 58 3 5.2 10.4 0.00 0.00 0.00 67 1028.9
20260509005804 58 4 4.3 10.4 0.00 0.00 0.00 68 1029.0
20260509005306 57 23 4.3 12.2 0.00 0.00 0.00 68 1029.0
20260509003304 57 44 7.0 14.8 0.00 0.00 0.00 70 1028.7
20260509002805 56 17 7.0 13.0 0.00 0.00 0.00 69 1028.7
20260509002306 56 38 7.8 13.0 0.00 0.00 0.00 70 1028.7
20260509001306 56 27 5.2 18.2 0.00 0.00 0.00 70 1028.7
20260509000305 55 46 6.1 12.2 0.00 0.00 0.00 71 1028.7
20260508235805 55 42 4.3 10.4 0.00 0.00 0.00 72 1028.7
20260508235306 55 43 7.0 10.4 0.00 0.00 0.00 71 1028.7
20260508234804 55 28 5.2 17.4 0.00 0.00 0.00 72 1028.7
20260508234305 54 52 6.1 13.0 0.00 0.00 0.00 72 1028.7
20260508233805 54 49 7.0 14.8 0.00 0.00 0.00 72 1028.7
20260508233304 54 47 7.8 13.9 0.00 0.00 0.00 72 1028.7
20260508232804 54 29 6.1 13.0 0.00 0.00 0.00 72 1028.7
20260508232307 54 27 4.3 14.8 0.00 0.00 0.00 72 1028.7
20260508231304 54 47 5.2 13.9 0.00 0.00 0.00 73 1028.7
20260508230805 54 36 5.2 8.7 0.00 0.00 0.00 73 1028.7
20260508230304 54 31 5.2 12.2 0.00 0.00 0.00 73 1028.7
20260508224805 54 26 6.1 13.0 0.00 0.00 0.00 73 1028.3
20260508224305 54 41 2.6 8.7 0.00 0.00 0.00 73 1028.3
20260508223804 54 31 2.6 6.1 0.00 0.00 0.00 73 1028.3
20260508223305 54 43 5.2 7.8 0.00 0.00 0.00 73 1028.3
20260508222804 54 41 5.2 11.3 0.00 0.00 0.00 73 1028.3
20260508222306 54 30 5.2 8.7 0.00 0.00 0.00 72 1028.1
20260508221804 54 31 3.5 10.4 0.00 0.00 0.00 72 1028.1
20260508221305 54 29 3.5 11.3 0.00 0.00 0.00 72 1028.1
20260508220805 54 24 4.3 7.0 0.00 0.00 0.00 72 1028.1
20260508220304 54 24 4.3 8.7 0.00 0.00 0.00 72 1028.1
20260508215805 55 42 4.3 10.4 0.00 0.00 0.00 71 1028.1
20260508215306 55 28 4.3 10.4 0.00 0.00 0.00 71 1028.1
20260508214805 55 26 3.5 7.8 0.00 0.00 0.00 71 1028.1
20260508214304 55 32 6.1 13.0 0.00 0.00 0.00 71 1028.1
20260508213805 55 28 4.3 10.4 0.00 0.00 0.00 70 1028.1
20260508213305 55 18 4.3 10.4 0.00 0.00 0.00 70 1028.1
20260508212306 55 37 4.3 7.8 0.00 0.00 0.00 70 1028.1
20260508211805 56 38 7.0 12.2 0.00 0.00 0.00 70 1028.1
20260508211306 55 47 4.3 10.4 0.00 0.00 0.00 70 1027.8
20260508210806 56 43 5.2 12.2 0.00 0.00 0.00 70 1027.8
20260508210304 56 52 4.3 7.0 0.00 0.00 0.00 69 1027.8
20260508205805 56 45 5.2 10.4 0.00 0.00 0.00 69 1027.8
20260508205306 56 17 6.1 13.0 0.00 0.00 0.00 69 1027.8
20260508204805 56 34 4.3 10.4 0.00 0.00 0.00 69 1027.8
20260508204305 56 22 4.3 8.7 0.00 0.00 0.00 69 1027.7
20260508202805 56 38 4.3 11.3 0.00 0.00 0.00 69 1027.7
20260508202307 56 36 4.3 11.3 0.00 0.00 0.00 69 1027.7
20260508201305 56 16 5.2 8.7 0.00 0.00 0.00 69 1027.6
20260508200806 56 46 4.3 8.7 0.00 0.00 0.00 68 1027.6
20260508200305 57 42 4.3 10.4 0.00 0.00 0.00 68 1027.7
20260508195805 57 29 4.3 10.4 0.00 0.00 0.00 68 1027.7
20260508195306 57 30 6.1 14.8 0.00 0.00 0.00 68 1027.7
20260508194805 57 49 5.2 10.4 0.00 0.00 0.00 68 1027.7
20260508193806 57 30 4.3 8.7 0.00 0.00 0.00 68 1027.7
20260508191805 57 36 5.2 10.4 0.00 0.00 0.00 68 1027.7
20260508191305 57 31 4.3 10.4 0.00 0.00 0.00 68 1027.7
20260508190806 57 53 5.2 10.4 0.00 0.00 0.00 68 1027.7
20260508190305 57 48 4.3 12.2 0.00 0.00 0.00 68 1027.7
20260508185805 57 6 3.5 7.8 0.00 0.00 0.00 68 1027.7
20260508185306 57 58 5.2 11.3 0.00 0.00 0.00 67 1027.7
20260508184804 57 19 3.5 10.4 0.00 0.00 0.00 67 1027.7
20260508184305 58 48 4.3 10.4 0.00 0.00 0.00 67 1027.7
20260508183805 58 33 3.5 10.4 0.00 0.00 0.00 67 1027.7
20260508183306 58 53 6.1 13.0 0.00 0.00 0.00 67 1027.7
20260508182804 58 33 4.3 7.8 0.00 0.00 0.00 67 1027.7
20260508181805 58 61 4.3 8.7 0.00 0.00 0.00 67 1027.7
20260508180306 58 41 2.6 12.2 0.00 0.00 0.00 66 1027.7
20260508175804 58 49 4.3 11.3 0.00 0.00 0.00 66 1027.7
20260508175306 58 32 5.2 10.4 0.00 0.00 0.00 66 1027.7
20260508174805 58 35 4.3 8.7 0.00 0.00 0.00 66 1027.7
20260508172804 58 26 3.5 7.8 0.00 0.00 0.00 67 1027.7
20260508172307 58 39 3.5 7.0 0.00 0.00 0.00 67 1027.7
20260508171805 58 48 2.6 6.1 0.00 0.00 0.00 67 1027.7
20260508171305 58 61 6.1 11.3 0.00 0.00 0.00 66 1027.7
20260508164805 59 49 5.2 13.9 0.00 0.00 0.00 66 1027.8
20260508163805 59 44 4.3 12.2 0.00 0.00 0.00 66 1027.8
20260508163304 59 70 4.3 12.2 0.00 0.00 0.00 66 1027.8
20260508161805 59 52 5.2 11.3 0.00 0.00 0.00 65 1027.8
20260508161305 60 53 4.3 10.4 0.00 0.00 0.00 65 1027.8
20260508160305 60 56 5.2 10.4 0.00 0.00 0.00 64 1027.8
20260508155805 60 53 5.2 10.4 0.00 0.00 0.00 64 1027.8
20260508155306 60 42 3.5 7.8 0.00 0.00 0.00 64 1027.8
20260508154305 60 51 4.3 11.3 0.00 0.00 0.00 64 1027.8
20260508153805 60 61 3.5 11.3 0.00 0.00 0.00 65 1027.8
20260508153304 60 63 2.6 6.1 0.00 0.00 0.00 65 1027.9
20260508152306 60 31 4.3 7.8 0.00 0.00 0.00 65 1028.0
20260508151804 60 32 3.5 7.0 0.00 0.00 0.00 66 1028.0
20260508151305 60 32 2.6 6.1 0.00 0.00 0.00 67 1028.0
20260508150805 60 51 2.6 5.2 0.00 0.00 0.00 67 1028.0
20260508145805 59 60 1.7 7.8 0.00 0.00 0.00 70 1028.0
20260508145306 59 37 2.6 4.3 0.00 0.00 0.00 71 1028.3
20260508144805 58 37 2.6 6.1 0.00 0.00 0.00 72 1028.3
20260508144304 57 34 2.6 6.1 0.00 0.00 0.00 73 1028.3
20260508143805 57 43 2.6 6.1 0.00 0.00 0.00 74 1028.3
20260508143305 56 16 3.5 7.0 0.00 0.00 0.00 76 1028.3
20260508142804 55 44 1.7 4.3 0.00 0.00 0.00 78 1028.3
20260508142307 55 44 0.9 2.6 0.00 0.00 0.00 78 1028.3
20260508141805 54 327 0.0 1.7 0.00 0.00 0.00 79 1028.3
20260508141304 54 323 0.0 1.7 0.00 0.00 0.00 80 1028.3
20260508140805 54 281 0.9 1.7 0.00 0.00 0.00 81 1028.3
20260508135805 53 53 1.7 6.1 0.00 0.00 0.00 84 1028.1
20260508135306 52 44 1.7 2.6 0.00 0.00 0.00 85 1028.1
20260508134304 52 83 1.7 2.6 0.00 0.00 0.00 87 1028.1
20260508133805 51 2 0.9 5.2 0.00 0.00 0.00 87 1028.1
20260508133304 51 301 0.0 2.6 0.00 0.00 0.00 87 1027.9
20260508132805 51 278 0.9 1.7 0.00 0.00 0.00 87 1027.9
20260508132306 51 359 0.0 0.9 0.00 0.00 0.00 87 1027.9
20260508131804 51 359 0.0 0.9 0.00 0.00 0.00 87 1027.9
20260508131305 51 287 0.0 0.0 0.00 0.00 0.00 87 1027.9
20260508130805 51 287 0.9 1.7 0.00 0.00 0.00 87 1027.9
20260508130304 52 287 0.9 1.7 0.00 0.00 0.00 87 1027.9
20260508125805 52 287 0.0 1.7 0.00 0.00 0.00 87 1027.9
20260508125306 52 287 0.9 2.6 0.00 0.00 0.00 86 1027.9
20260508124804 52 289 0.9 1.7 0.00 0.00 0.00 86 1027.9
20260508124305 53 289 0.9 1.7 0.00 0.00 0.00 86 1027.9
20260508123805 53 352 0.0 0.9 0.00 0.00 0.00 85 1027.9
20260508123305 53 352 0.0 0.9 0.00 0.00 0.00 84 1027.9
20260508122307 54 352 0.0 0.9 0.00 0.00 0.00 83 1027.8
20260508121805 54 352 0.0 0.9 0.00 0.00 0.00 82 1027.9
20260508121306 54 11 0.9 1.7 0.00 0.00 0.00 81 1027.9
20260508120804 54 46 0.0 0.0 0.00 0.00 0.00 80 1027.9
20260508115805 55 46 0.0 0.9 0.00 0.00 0.00 80 1027.9
20260508115306 55 46 0.0 0.9 0.00 0.00 0.00 80 1027.9
20260508114305 56 97 0.0 0.9 0.00 0.00 0.00 79 1027.9
20260508113306 56 97 0.0 0.9 0.00 0.00 0.00 78 1027.9
20260508112804 57 97 0.0 0.9 0.00 0.00 0.00 78 1027.9
20260508112307 57 97 0.0 0.9 0.00 0.00 0.00 78 1027.9
20260508111806 57 97 0.0 1.7 0.00 0.00 0.00 77 1027.9
20260508110805 58 97 0.9 1.7 0.00 0.00 0.00 77 1027.9
20260508110305 58 22 0.9 0.9 0.00 0.00 0.00 76 1027.8
20260508105805 59 22 0.0 0.0 0.00 0.00 0.00 74 1027.8
20260508105306 59 22 0.0 0.0 0.00 0.00 0.00 74 1027.8
20260508104804 59 22 0.0 0.0 0.00 0.00 0.00 73 1027.8
20260508104304 60 22 0.9 1.7 0.00 0.00 0.00 72 1027.8
20260508103805 61 100 0.9 1.7 0.00 0.00 0.00 71 1027.8
20260508103304 62 101 0.0 0.9 0.00 0.00 0.00 70 1027.8
20260508102804 62 101 0.0 0.0 0.00 0.00 0.00 70 1027.8
20260508101305 63 101 0.9 0.9 0.00 0.00 0.00 68 1027.7
20260508100805 64 101 0.9 0.9 0.00 0.00 0.00 67 1027.7
20260508100306 65 101 0.9 1.7 0.00 0.00 0.00 65 1027.7
20260508095805 65 101 0.0 0.9 0.00 0.00 0.00 64 1027.4
20260508095306 65 101 0.0 0.9 0.00 0.00 0.00 63 1027.4
20260508094806 66 99 0.9 1.7 0.00 0.00 0.00 62 1027.4
20260508094304 66 82 0.0 0.9 0.00 0.00 0.00 62 1027.4
20260508093804 66 82 0.0 0.9 0.00 0.00 0.00 61 1027.4
20260508093305 67 82 0.0 0.9 0.00 0.00 0.00 61 1027.4
20260508092312 67 85 0.0 2.6 0.00 0.00 0.00 60 1027.4
20260508091805 68 103 0.0 1.7 0.00 0.00 0.00 61 1027.4
20260508091305 68 97 0.9 1.7 0.00 0.00 0.00 59 1027.4
20260508090805 68 54 1.7 2.6 0.00 0.00 0.00 59 1027.4
20260508085805 68 75 2.6 6.1 0.00 0.00 0.00 58 1027.3
20260508085307 68 82 0.9 5.2 0.00 0.00 0.00 58 1027.3
20260508084805 68 74 2.6 4.3 0.00 0.00 0.00 58 1027.3
20260508084304 69 39 5.2 8.7 0.00 0.00 0.00 57 1027.3
20260508083805 69 45 4.3 7.0 0.00 0.00 0.00 58 1027.3
20260508083305 69 54 2.6 7.8 0.00 0.00 0.00 58 1027.3
20260508081805 69 62 4.3 7.8 0.00 0.00 0.00 57 1027.4
20260508081305 69 54 5.2 7.8 0.00 0.00 0.00 57 1027.4
20260508080805 69 64 5.2 10.4 0.00 0.00 0.00 56 1027.4
20260508080305 69 27 4.3 8.7 0.00 0.00 0.00 57 1027.4
20260508075804 69 61 5.2 10.4 0.00 0.00 0.00 57 1027.4
20260508075308 70 33 4.3 10.4 0.00 0.00 0.00 58 1027.4
20260508074804 70 39 3.5 7.0 0.00 0.00 0.00 58 1027.4
20260508074305 70 50 2.6 10.4 0.00 0.00 0.00 57 1027.4
20260508073805 70 58 5.2 8.7 0.00 0.00 0.00 57 1027.4
20260508073305 70 90 3.5 8.7 0.00 0.00 0.00 56 1027.4
20260508072805 70 105 2.6 10.4 0.00 0.00 0.00 58 1027.4
20260508071805 69 25 2.6 5.2 0.00 0.00 0.00 59 1027.4
20260508071305 68 7 0.9 10.4 0.00 0.00 0.00 60 1027.4
20260508070805 68 34 4.3 8.7 0.00 0.00 0.00 60 1027.4
20260508065805 69 27 5.2 8.7 0.00 0.00 0.00 60 1027.8
20260508064804 70 19 5.2 8.7 0.00 0.00 0.00 60 1027.8
20260508063804 70 54 4.3 8.7 0.00 0.00 0.00 59 1027.8
20260508063305 69 35 2.6 10.4 0.00 0.00 0.00 61 1027.8
20260508062805 69 59 4.3 7.8 0.00 0.00 0.00 62 1027.8
20260508062306 69 35 2.6 4.3 0.00 0.00 0.00 62 1027.8
20260508061804 69 45 2.6 8.7 0.00 0.00 0.00 61 1027.8
20260508060804 70 74 3.5 8.7 0.00 0.00 0.00 60 1027.8
20260508060305 69 59 7.8 10.4 0.00 0.00 0.00 60 1028.2
20260508055306 70 16 3.5 7.0 0.00 0.00 0.00 60 1028.2
20260508054804 69 108 3.5 8.7 0.00 0.00 0.00 65 1028.2
20260508054304 67 48 3.5 6.1 0.00 0.00 0.00 65 1028.2
20260508053805 67 59 3.5 7.0 0.00 0.00 0.00 66 1028.2
20260508053305 68 67 4.3 8.7 0.00 0.00 0.00 64 1028.5
20260508052804 68 42 4.3 7.0 0.00 0.00 0.00 63 1028.5
20260508052307 68 64 3.5 7.0 0.00 0.00 0.00 63 1028.5
20260508051805 69 42 6.1 10.4 0.00 0.00 0.00 61 1028.5
20260508051304 70 67 2.6 7.0 0.00 0.00 0.00 60 1028.5
20260508050805 71 28 4.3 7.8 0.00 0.00 0.00 61 1029.3
20260508050304 71 73 2.6 7.0 0.00 0.00 0.00 59 1029.3
20260508045805 70 56 1.7 4.3 0.00 0.00 0.00 59 1029.3
20260508045307 70 61 2.6 7.8 0.00 0.00 0.00 63 1029.3
20260508044805 70 64 1.7 6.1 0.00 0.00 0.00 63 1029.3
20260508044304 69 61 2.6 8.7 0.00 0.00 0.00 63 1029.3
20260508043304 69 60 5.2 10.4 0.00 0.00 0.00 63 1029.4
20260508042805 69 27 4.3 8.7 0.00 0.00 0.00 62 1029.4
20260508042307 69 347 4.3 8.7 0.00 0.00 0.00 63 1029.5
20260508041304 68 22 2.6 4.3 0.00 0.00 0.00 63 1030.2
20260508040804 69 3 5.2 7.8 0.00 0.00 0.00 62 1030.2
20260508040305 68 344 3.5 7.8 0.00 0.00 0.00 64 1030.2
20260508035805 68 21 4.3 7.0 0.00 0.00 0.00 66 1030.2
20260508035306 68 11 4.3 6.1 0.00 0.00 0.00 65 1030.6
20260508034804 67 53 7.8 11.3 0.00 0.00 0.00 65 1030.6
20260508034305 67 56 5.2 10.4 0.00 0.00 0.00 66 1030.6
20260508033804 67 35 5.2 11.3 0.00 0.00 0.00 66 1030.6
20260508033304 67 66 6.1 11.3 0.00 0.00 0.00 66 1030.6
20260508032805 67 62 4.3 11.3 0.00 0.00 0.00 65 1030.7
20260508031805 66 45 6.1 12.2 0.00 0.00 0.00 67 1030.9
20260508031305 66 51 6.1 10.4 0.00 0.00 0.00 67 1030.9
20260508030804 66 53 5.2 13.9 0.00 0.00 0.00 68 1030.9
20260508030305 66 6 6.1 13.9 0.00 0.00 0.00 68 1030.9
20260508025804 66 29 6.1 11.3 0.00 0.00 0.00 69 1030.9
20260508025306 65 27 5.2 10.4 0.00 0.00 0.00 70 1031.0
20260508024304 65 82 4.3 10.4 0.00 0.00 0.00 70 1031.5
20260508023804 65 35 1.7 12.2 0.00 0.00 0.00 72 1031.5
20260508023304 65 17 2.6 7.0 0.00 0.00 0.00 72 1031.5
20260508022804 65 25 3.5 7.0 0.00 0.00 0.00 72 1031.5
20260508022307 64 37 3.5 6.1 0.00 0.00 0.00 73 1031.5
20260508021804 64 352 1.7 7.8 0.00 0.00 0.00 73 1031.5
20260508021304 63 12 4.3 7.0 0.00 0.00 0.00 73 1031.8
20260508020305 63 55 4.3 7.0 0.00 0.00 0.00 74 1031.8
20260508015805 62 24 2.6 8.7 0.00 0.00 0.00 76 1031.8
20260508015306 62 45 6.1 10.4 0.00 0.00 0.00 76 1031.8
20260508014804 62 59 4.3 7.8 0.00 0.00 0.00 75 1031.8
20260508014304 62 57 6.1 11.3 0.00 0.00 0.00 76 1031.8
20260508013805 62 21 3.5 13.0 0.00 0.00 0.00 77 1031.8